Terminal Aerodrome Forecast
Issued by NWS

Home | Current Version | Previous Version | Text Only | Print | Product List | Glossary On
Versions: 1 2 3 4 5 6 7 8 9 10 11 12 13 14 15 16 17 18 19 20 21 22 23 24 25 26 27 28 29 30
000
FTUS41 KBUF 032056 AAA
TAFJHW
TAF AMD
KJHW 032056Z 0321/0418 27010KT P6SM SCT025 BKN035
     FM032300 26005KT P6SM SCT040
     FM040500 VRB03KT 3SM BR SCT008
     FM040800 23005KT 2SM BR BKN008
     FM041200 27008KT P6SM BKN025
     FM041400 27010KT P6SM BKN035
      AMD LTD TO CLD VIS AND WIND=

USA.gov is the U.S. government's official web portal to all federal, state and local government web resources and services.